| time (UTC) | temp C | wind direction | speed KPH | gust KPH | rain 1hr cm | rain 24hr cm | rain mn cm | humidity % | barometer mb |
| 20260510150056 | 13 | 191 | 0.0 | 8.0 | 0.00 | 1.65 | 1.09 | 86 | 1013.4 |
| 20260510144553 | 13 | 191 | 0.0 | 0.0 | 0.00 | 1.65 | 1.09 | 86 | 1013.4 |
| 20260510143051 | 13 | 191 | 0.0 | 0.0 | 0.00 | 1.65 | 1.09 | 86 | 1013.4 |
| 20260510141532 | 13 | 191 | 0.0 | 0.0 | 0.00 | 1.65 | 1.09 | 87 | 1013.4 |
| 20260510140026 | 13 | 191 | 1.6 | 4.8 | 0.00 | 1.65 | 1.09 | 88 | 1013.5 |
| 20260510134514 | 13 | 191 | 0.0 | 0.0 | 0.00 | 1.65 | 1.09 | 89 | 1013.3 |
| 20260510133013 | 12 | 191 | 3.2 | 6.4 | 0.00 | 1.65 | 1.09 | 90 | 1013.5 |
| 20260510131510 | 12 | 147 | 0.0 | 8.0 | 0.00 | 1.65 | 1.09 | 91 | 1013.3 |
| 20260510130009 | 12 | 145 | 0.0 | 0.0 | 0.00 | 1.65 | 1.09 | 92 | 1013.2 |
| 20260510124507 | 11 | 126 | 0.0 | 0.0 | 0.00 | 1.65 | 1.09 | 92 | 1013.0 |
| 20260510123117 | 11 | 126 | 0.0 | 0.0 | 0.00 | 1.68 | 1.09 | 92 | 1013.1 |
| 20260510121503 | 11 | 112 | 0.0 | 6.4 | 0.00 | 1.68 | 1.09 | 92 | 1013.1 |
| 20260510120002 | 11 | 109 | 1.6 | 4.8 | 0.00 | 1.68 | 1.09 | 92 | 1013.1 |
| 20260510114540 | 11 | 194 | 0.0 | 1.6 | 0.00 | 1.68 | 1.09 | 92 | 1012.8 |
| 20260510113034 | 10 | 194 | 0.0 | 9.7 | 0.00 | 1.70 | 1.09 | 92 | 1012.9 |
| 20260510111526 | 10 | 194 | 0.0 | 9.7 | 0.00 | 1.70 | 1.09 | 92 | 1012.8 |
| 20260510110027 | 10 | 68 | 0.0 | 6.4 | 0.00 | 1.70 | 1.09 | 92 | 1012.5 |
| 20260510104533 | 10 | 131 | 0.0 | 0.0 | 0.00 | 1.70 | 1.09 | 92 | 1012.5 |
| 20260510103025 | 10 | 134 | 0.0 | 0.0 | 0.00 | 1.83 | 1.09 | 92 | 1012.7 |
| 20260510101523 | 10 | 194 | 0.0 | 0.0 | 0.00 | 1.83 | 1.09 | 92 | 1012.9 |
| 20260510100022 | 10 | 194 | 0.0 | 0.0 | 0.00 | 1.83 | 1.09 | 92 | 1012.6 |
| 20260510094534 | 10 | 194 | 0.0 | 0.0 | 0.00 | 1.83 | 1.09 | 92 | 1012.8 |
| 20260510093021 | 10 | 195 | 0.0 | 0.0 | 0.00 | 1.83 | 1.09 | 92 | 1012.9 |
| 20260510091520 | 10 | 195 | 0.0 | 4.8 | 0.00 | 1.83 | 1.09 | 92 | 1012.6 |
| 20260510090020 | 10 | 172 | 0.0 | 0.0 | 0.00 | 1.83 | 1.09 | 92 | 1012.4 |
| 20260510084517 | 10 | 171 | 0.0 | 0.0 | 0.00 | 1.83 | 1.09 | 92 | 1012.2 |
| 20260510083016 | 10 | 171 | 0.0 | 0.0 | 0.00 | 1.83 | 1.09 | 92 | 1012.1 |
| 20260510081616 | 10 | 170 | 0.0 | 0.0 | 0.00 | 1.83 | 1.09 | 92 | 1011.9 |
| 20260510080015 | 10 | 171 | 0.0 | 0.0 | 0.00 | 1.83 | 1.09 | 92 | 1012.0 |
| 20260510074514 | 10 | 171 | 0.0 | 0.0 | 0.00 | 1.83 | 1.09 | 92 | 1012.1 |
| 20260510073015 | 10 | 171 | 0.0 | 0.0 | 0.00 | 1.83 | 1.09 | 92 | 1012.2 |
| 20260510071512 | 10 | 171 | 0.0 | 6.4 | 0.00 | 1.83 | 1.09 | 92 | 1012.2 |
| 20260510070046 | 10 | 89 | 0.0 | 0.0 | 0.00 | 1.83 | 1.09 | 92 | 1011.9 |
| 20260510064541 | 10 | 89 | 0.0 | 0.0 | 0.00 | 1.83 | 1.09 | 92 | 1011.9 |
| 20260510063040 | 10 | 89 | 0.0 | 0.0 | 0.00 | 1.83 | 1.09 | 92 | 1011.8 |
| 20260510061538 | 10 | 89 | 0.0 | 0.0 | 0.00 | 1.83 | 1.09 | 92 | 1011.7 |
| 20260510060038 | 10 | 89 | 0.0 | 0.0 | 0.00 | 1.83 | 1.09 | 92 | 1012.0 |
| 20260510054546 | 10 | 89 | 0.0 | 0.0 | 0.00 | 1.83 | 1.09 | 92 | 1012.2 |
| 20260510053035 | 10 | 89 | 0.0 | 0.0 | 0.00 | 1.83 | 1.09 | 92 | 1012.1 |
| 20260510051535 | 10 | 89 | 0.0 | 0.0 | 0.00 | 1.83 | 1.09 | 92 | 1011.9 |
| 20260510050033 | 10 | 89 | 0.0 | 0.0 | 0.00 | 1.83 | 1.09 | 92 | 1011.5 |
| 20260510044541 | 10 | 89 | 0.0 | 0.0 | 0.00 | 1.83 | 1.09 | 92 | 1012.1 |
| 20260510043030 | 10 | 89 | 0.0 | 0.0 | 0.00 | 1.83 | 1.09 | 92 | 1012.0 |
| 20260510041530 | 10 | 89 | 0.0 | 0.0 | 0.00 | 1.83 | 1.09 | 92 | 1011.9 |
| 20260510040028 | 10 | 89 | 0.0 | 0.0 | 0.00 | 1.83 | 1.09 | 92 | 1012.0 |
| 20260510034527 | 10 | 89 | 0.0 | 0.0 | 0.00 | 1.83 | 1.09 | 92 | 1012.0 |
| 20260510033116 | 10 | 88 | 0.0 | 0.0 | 0.00 | 1.83 | 1.09 | 92 | 1011.8 |
| 20260510031557 | 10 | 87 | 0.0 | 0.0 | 0.03 | 1.83 | 1.09 | 92 | 1011.7 |
| 20260510030028 | 10 | 87 | 0.0 | 0.0 | 0.03 | 1.83 | 1.09 | 92 | 1012.2 |
| 20260510024522 | 10 | 87 | 0.0 | 0.0 | 0.03 | 1.83 | 1.09 | 92 | 1012.1 |
| 20260510023058 | 10 | 87 | 0.0 | 0.0 | 0.03 | 1.83 | 1.09 | 91 | 1012.1 |
| 20260510021552 | 10 | 87 | 0.0 | 4.8 | 0.00 | 1.80 | 1.07 | 91 | 1012.3 |
| 20260510014608 | 10 | 88 | 0.0 | 9.7 | 0.03 | 1.80 | 1.07 | 91 | 1012.3 |
| 20260510013059 | 10 | 87 | 0.0 | 6.4 | 0.05 | 1.80 | 1.07 | 91 | 1012.4 |
| 20260510011545 | 10 | 85 | 0.0 | 12.9 | 0.08 | 1.80 | 1.07 | 91 | 1012.7 |
| 20260510010030 | 11 | 220 | 0.0 | 6.4 | 0.10 | 1.78 | 1.04 | 91 | 1012.7 |
| 20260510004504 | 11 | 118 | 0.0 | 12.9 | 0.13 | 1.75 | 1.02 | 91 | 1012.8 |
| 20260510003002 | 11 | 121 | 0.0 | 0.0 | 0.20 | 1.75 | 1.02 | 91 | 1012.6 |
| 20260510001503 | 11 | 182 | 3.2 | 17.7 | 0.30 | 1.73 | 0.99 | 91 | 1012.6 |
| 20260510000100 | 11 | 96 | 0.0 | 0.0 | 0.38 | 1.68 | 0.94 | 91 | 1012.5 |
| 20260509234556 | 11 | 124 | 0.0 | 3.2 | 0.46 | 1.63 | 0.89 | 91 | 1012.6 |
| 20260509233055 | 11 | 122 | 1.6 | 8.0 | 0.46 | 1.55 | 0.81 | 91 | 1012.6 |
| 20260509231606 | 11 | 159 | 0.0 | 0.0 | 0.43 | 1.42 | 0.69 | 91 | 1012.5 |
| 20260509230053 | 11 | 160 | 0.0 | 0.0 | 0.46 | 1.30 | 0.56 | 91 | 1012.8 |
| 20260509224522 | 12 | 161 | 0.0 | 8.0 | 0.41 | 1.17 | 0.43 | 90 | 1012.9 |
| 20260509223021 | 12 | 226 | 0.0 | 0.0 | 0.38 | 1.09 | 0.36 | 90 | 1012.6 |
| 20260509220012 | 12 | 226 | 0.0 | 8.0 | 0.18 | 0.84 | 0.10 | 89 | 1012.3 |
| 20260509214509 | 12 | 241 | 0.0 | 1.6 | 0.13 | 0.76 | 0.03 | 89 | 1012.3 |
| 20260509213008 | 12 | 190 | 0.0 | 0.0 | 0.20 | 0.71 | 0.71 | 89 | 1012.0 |
| 20260509211514 | 12 | 191 | 0.0 | 0.0 | 0.30 | 0.69 | 0.69 | 88 | 1012.1 |
| 20260509210006 | 12 | 188 | 0.0 | 9.7 | 0.36 | 0.66 | 0.66 | 88 | 1012.2 |
| 20260509204504 | 12 | 197 | 1.6 | 11.3 | 0.30 | 0.61 | 0.61 | 87 | 1012.3 |
| 20260509203005 | 12 | 122 | 0.0 | 9.7 | 0.28 | 0.51 | 0.51 | 86 | 1012.1 |
| 20260509201558 | 13 | 186 | 0.0 | 17.7 | 0.20 | 0.38 | 0.38 | 86 | 1012.2 |
| 20260509200058 | 13 | 82 | 0.0 | 0.0 | 0.13 | 0.30 | 0.30 | 85 | 1011.7 |
| 20260509194530 | 13 | 82 | 0.0 | 1.6 | 0.13 | 0.30 | 0.30 | 82 | 1011.6 |
| 20260509193027 | 15 | 76 | 0.0 | 11.3 | 0.05 | 0.23 | 0.23 | 78 | 1011.7 |
| 20260509191527 | 15 | 134 | 0.0 | 4.8 | 0.00 | 0.18 | 0.18 | 73 | 1011.7 |
| 20260509190021 | 15 | 126 | 0.0 | 9.7 | 0.00 | 0.18 | 0.18 | 72 | 1011.9 |
| 20260509184521 | 15 | 191 | 1.6 | 14.5 | 0.00 | 0.18 | 0.18 | 74 | 1012.0 |
| 20260509183015 | 15 | 184 | 0.0 | 9.7 | 0.00 | 0.18 | 0.18 | 72 | 1012.1 |
| 20260509181514 | 15 | 128 | 0.0 | 1.6 | 0.00 | 0.18 | 0.18 | 74 | 1012.2 |
| 20260509180013 | 15 | 123 | 0.0 | 0.0 | 0.00 | 0.18 | 0.18 | 72 | 1012.2 |
| 20260509174511 | 15 | 182 | 0.0 | 6.4 | 0.00 | 0.18 | 0.18 | 73 | 1012.5 |
| 20260509173032 | 15 | 196 | 0.0 | 8.0 | 0.00 | 0.18 | 0.18 | 71 | 1012.8 |
| 20260509171521 | 15 | 190 | 0.0 | 8.0 | 0.00 | 0.18 | 0.18 | 71 | 1012.7 |
| 20260509170014 | 15 | 181 | 3.2 | 19.3 | 0.00 | 0.18 | 0.18 | 71 | 1013.0 |
| 20260509164558 | 15 | 173 | 1.6 | 12.9 | 0.00 | 0.18 | 0.18 | 74 | 1012.7 |
| 20260509163052 | 15 | 195 | 0.0 | 12.9 | 0.00 | 0.18 | 0.18 | 72 | 1012.8 |
| 20260509161548 | 14 | 183 | 0.0 | 8.0 | 0.00 | 0.18 | 0.18 | 76 | 1013.0 |
| 20260509154525 | 12 | 105 | 0.0 | 4.8 | 0.00 | 0.18 | 0.18 | 83 | 1013.4 |
| 20260509153031 | 12 | 173 | 0.0 | 6.4 | 0.00 | 0.18 | 0.18 | 85 | 1013.5 |
| 20260509151519 | 11 | 153 | 0.0 | 8.0 | 0.00 | 0.18 | 0.18 | 86 | 1013.6 |